Year,Month,Day,Hour,Minute,Value (Times are PST for temperature in C)
2014,07,22,00,00,15.70
2014,07,22,00,01,15.70
2014,07,22,00,02,15.70
2014,07,22,00,03,15.60
2014,07,22,00,04,15.60
2014,07,22,00,05,15.60
2014,07,22,00,06,15.60
2014,07,22,00,07,15.60
2014,07,22,00,08,15.60
2014,07,22,00,09,15.60
2014,07,22,00,10,15.60
2014,07,22,00,11,15.60
2014,07,22,00,12,15.50
2014,07,22,00,13,15.50
2014,07,22,00,14,15.50
2014,07,22,00,15,15.50
2014,07,22,00,16,15.50
2014,07,22,00,17,15.50
2014,07,22,00,18,15.40
2014,07,22,00,19,15.40
2014,07,22,00,20,15.40
2014,07,22,00,21,15.40
2014,07,22,00,22,15.40
2014,07,22,00,23,15.40
2014,07,22,00,24,15.40
2014,07,22,00,25,15.40
2014,07,22,00,26,15.40
2014,07,22,00,27,15.40
2014,07,22,00,28,15.40
2014,07,22,00,29,15.40
2014,07,22,00,30,15.40
2014,07,22,00,31,15.40
2014,07,22,00,32,15.40
2014,07,22,00,33,15.40
2014,07,22,00,34,15.40
2014,07,22,00,35,15.40
2014,07,22,00,36,15.40
2014,07,22,00,37,15.40
2014,07,22,00,38,15.40
2014,07,22,00,39,15.40
2014,07,22,00,40,15.40
2014,07,22,00,41,15.40
2014,07,22,00,42,15.40
2014,07,22,00,43,15.40
2014,07,22,00,44,15.40
2014,07,22,00,45,15.40
2014,07,22,00,46,15.40
2014,07,22,00,47,15.40
2014,07,22,00,48,15.40
2014,07,22,00,49,15.40
2014,07,22,00,50,15.40
2014,07,22,00,51,15.40
2014,07,22,00,52,15.40
2014,07,22,00,53,15.40
2014,07,22,00,54,15.30
2014,07,22,00,55,15.30
2014,07,22,00,56,15.30
2014,07,22,00,57,15.30
2014,07,22,00,58,15.30
2014,07,22,00,59,15.30
2014,07,22,01,00,15.30
2014,07,22,01,01,15.30
2014,07,22,01,02,15.30
2014,07,22,01,03,15.30
2014,07,22,01,04,15.30
2014,07,22,01,05,15.30
2014,07,22,01,06,15.30
2014,07,22,01,07,15.30
2014,07,22,01,08,15.30
2014,07,22,01,09,15.30
2014,07,22,01,10,15.30
2014,07,22,01,11,15.30
2014,07,22,01,12,15.30
2014,07,22,01,13,15.30
2014,07,22,01,14,15.30
2014,07,22,01,15,15.30
2014,07,22,01,16,15.30
2014,07,22,01,17,15.30
2014,07,22,01,18,15.30
2014,07,22,01,19,15.30
2014,07,22,01,20,15.30
2014,07,22,01,21,15.30
2014,07,22,01,22,15.30
2014,07,22,01,23,15.30
2014,07,22,01,24,15.30
2014,07,22,01,25,15.30
2014,07,22,01,26,15.30
2014,07,22,01,27,15.30
2014,07,22,01,28,15.30
2014,07,22,01,29,15.30
2014,07,22,01,30,15.30
2014,07,22,01,31,15.30
2014,07,22,01,32,15.30
2014,07,22,01,33,15.30
2014,07,22,01,34,15.30
2014,07,22,01,35,15.30
2014,07,22,01,36,15.30
2014,07,22,01,37,15.30
2014,07,22,01,38,15.30
2014,07,22,01,39,15.30
2014,07,22,01,40,15.30
2014,07,22,01,41,15.30
2014,07,22,01,42,15.30
2014,07,22,01,43,15.30
2014,07,22,01,44,15.30
2014,07,22,01,45,15.30
2014,07,22,01,46,15.30
2014,07,22,01,47,15.30
2014,07,22,01,48,15.30
2014,07,22,01,49,15.30
2014,07,22,01,50,15.30
2014,07,22,01,51,15.20
2014,07,22,01,52,15.20
2014,07,22,01,53,15.20
2014,07,22,01,54,15.20
2014,07,22,01,55,15.20
2014,07,22,01,56,15.20
2014,07,22,01,57,15.20
2014,07,22,01,58,15.20
2014,07,22,01,59,15.20
2014,07,22,02,00,15.20
2014,07,22,02,01,15.20
2014,07,22,02,02,15.20
2014,07,22,02,03,15.20
2014,07,22,02,04,15.10
2014,07,22,02,05,15.10
2014,07,22,02,06,15.10
2014,07,22,02,07,15.10
2014,07,22,02,08,15.10
2014,07,22,02,09,15.10
2014,07,22,02,10,15.10
2014,07,22,02,11,15.10
2014,07,22,02,12,15.10
2014,07,22,02,13,15.10
2014,07,22,02,14,15.10
2014,07,22,02,15,15.10
2014,07,22,02,16,15.10
2014,07,22,02,17,15.10
2014,07,22,02,18,15.10
2014,07,22,02,19,15.10
2014,07,22,02,20,15.10
2014,07,22,02,21,15.20
2014,07,22,02,22,15.20
2014,07,22,02,23,15.30
2014,07,22,02,24,15.30
2014,07,22,02,25,15.40
2014,07,22,02,26,15.40
2014,07,22,02,27,15.40
2014,07,22,02,28,15.40
2014,07,22,02,29,15.40
2014,07,22,02,30,15.40
2014,07,22,02,31,15.40
2014,07,22,02,32,15.40
2014,07,22,02,33,15.40
2014,07,22,02,34,15.30
2014,07,22,02,35,15.30
2014,07,22,02,36,15.30
2014,07,22,02,37,15.30
2014,07,22,02,38,15.30
2014,07,22,02,39,15.30
2014,07,22,02,40,15.30
2014,07,22,02,41,15.30
2014,07,22,02,42,15.20
2014,07,22,02,43,15.20
2014,07,22,02,44,15.20
2014,07,22,02,45,15.20
2014,07,22,02,46,15.20
2014,07,22,02,47,15.20
2014,07,22,02,48,15.20
2014,07,22,02,49,15.20
2014,07,22,02,50,15.10
2014,07,22,02,51,15.10
2014,07,22,02,52,15.10
2014,07,22,02,53,15.10
2014,07,22,02,54,15.10
2014,07,22,02,55,15.10
2014,07,22,02,56,15.10
2014,07,22,02,57,15.10
2014,07,22,02,58,15.10
2014,07,22,02,59,15.10
2014,07,22,03,00,15.00
2014,07,22,03,01,15.00
2014,07,22,03,02,15.00
2014,07,22,03,03,15.00
2014,07,22,03,04,15.10
2014,07,22,03,05,15.10
2014,07,22,03,06,15.10
2014,07,22,03,07,15.10
2014,07,22,03,08,15.10
2014,07,22,03,09,15.10
2014,07,22,03,10,15.10
2014,07,22,03,11,15.20
2014,07,22,03,12,15.20
2014,07,22,03,13,15.20
2014,07,22,03,14,15.20
2014,07,22,03,15,15.20
2014,07,22,03,16,15.30
2014,07,22,03,17,15.30
2014,07,22,03,18,15.30
2014,07,22,03,19,15.30
2014,07,22,03,20,15.40
2014,07,22,03,21,15.40
2014,07,22,03,22,15.50
2014,07,22,03,23,15.50
2014,07,22,03,24,15.60
2014,07,22,03,25,15.60
2014,07,22,03,26,15.60
2014,07,22,03,27,15.60
2014,07,22,03,28,15.70
2014,07,22,03,29,15.70
2014,07,22,03,30,15.70
2014,07,22,03,31,15.80
2014,07,22,03,32,15.80
2014,07,22,03,33,15.80
2014,07,22,03,34,15.80
2014,07,22,03,35,15.90
2014,07,22,03,36,15.90
2014,07,22,03,37,16.00
2014,07,22,03,38,16.00
2014,07,22,03,39,16.00
2014,07,22,03,40,16.10
2014,07,22,03,41,16.10
2014,07,22,03,42,16.10
2014,07,22,03,43,16.10
2014,07,22,03,44,16.10
2014,07,22,03,45,16.10
2014,07,22,03,46,16.20
2014,07,22,03,47,16.20
2014,07,22,03,48,16.20
2014,07,22,03,49,16.20
2014,07,22,03,50,16.20
2014,07,22,03,51,16.20
2014,07,22,03,52,16.20
2014,07,22,03,53,16.20
2014,07,22,03,54,16.20
2014,07,22,03,55,16.20
2014,07,22,03,56,16.30
2014,07,22,03,57,16.30
2014,07,22,03,58,16.30
2014,07,22,03,59,16.30
2014,07,22,04,00,16.30
2014,07,22,04,01,16.30
2014,07,22,04,02,16.30
2014,07,22,04,03,16.30
2014,07,22,04,04,16.30
2014,07,22,04,05,16.30
2014,07,22,04,06,16.30
2014,07,22,04,07,16.30
2014,07,22,04,08,16.30
2014,07,22,04,09,16.30
2014,07,22,04,10,16.30
2014,07,22,04,11,16.30
2014,07,22,04,12,16.30
2014,07,22,04,13,16.30
2014,07,22,04,14,16.30
2014,07,22,04,15,16.20
2014,07,22,04,16,16.20
2014,07,22,04,17,16.20
2014,07,22,04,18,16.20
2014,07,22,04,19,16.20
2014,07,22,04,20,16.20
2014,07,22,04,21,16.20
2014,07,22,04,22,16.20
2014,07,22,04,23,16.20
2014,07,22,04,24,16.20
2014,07,22,04,25,16.10
2014,07,22,04,26,16.10
2014,07,22,04,27,16.10
2014,07,22,04,28,16.10
2014,07,22,04,29,16.10
2014,07,22,04,30,16.10
2014,07,22,04,31,16.10
2014,07,22,04,32,16.10
2014,07,22,04,33,16.10
2014,07,22,04,34,16.10
2014,07,22,04,35,16.10
2014,07,22,04,36,16.10
2014,07,22,04,37,16.10
2014,07,22,04,38,16.10
2014,07,22,04,39,16.10
2014,07,22,04,40,16.10
2014,07,22,04,41,16.10
2014,07,22,04,42,16.10
2014,07,22,04,43,16.10
2014,07,22,04,44,16.10
2014,07,22,04,45,16.10
2014,07,22,04,46,16.10
2014,07,22,04,47,16.10
2014,07,22,04,48,16.10
2014,07,22,04,49,16.10
2014,07,22,04,50,16.10
2014,07,22,04,51,16.00
2014,07,22,04,52,16.00
2014,07,22,04,53,16.00
2014,07,22,04,54,16.00
2014,07,22,04,55,16.00
2014,07,22,04,56,16.00
2014,07,22,04,57,15.90
2014,07,22,04,58,15.90
2014,07,22,04,59,15.90
2014,07,22,05,00,15.90
2014,07,22,05,01,15.90
2014,07,22,05,02,15.80
2014,07,22,05,03,15.80
2014,07,22,05,04,15.80
2014,07,22,05,05,15.80
2014,07,22,05,06,15.70
2014,07,22,05,07,15.70
2014,07,22,05,08,15.70
2014,07,22,05,09,15.70
2014,07,22,05,10,15.70
2014,07,22,05,11,15.70
2014,07,22,05,12,15.70
2014,07,22,05,13,15.70
2014,07,22,05,14,15.60
2014,07,22,05,15,15.60
2014,07,22,05,16,15.60
2014,07,22,05,17,15.60
2014,07,22,05,18,15.50
2014,07,22,05,19,15.50
2014,07,22,05,20,15.50
2014,07,22,05,21,15.40
2014,07,22,05,22,15.40
2014,07,22,05,23,15.40
2014,07,22,05,24,15.40
2014,07,22,05,25,15.40
2014,07,22,05,26,15.40
2014,07,22,05,27,15.40
2014,07,22,05,28,15.40
2014,07,22,05,29,15.40
2014,07,22,05,30,15.40
2014,07,22,05,31,15.40
2014,07,22,05,32,15.40
2014,07,22,05,33,15.40
2014,07,22,05,34,15.40
2014,07,22,05,35,15.40
2014,07,22,05,36,15.40
2014,07,22,05,37,15.40
2014,07,22,05,38,15.40
2014,07,22,05,39,15.50
2014,07,22,05,40,15.50
2014,07,22,05,41,15.50
2014,07,22,05,42,15.60
2014,07,22,05,43,15.60
2014,07,22,05,44,15.60
2014,07,22,05,45,15.60
2014,07,22,05,46,15.70
2014,07,22,05,47,15.70
2014,07,22,05,48,15.70
2014,07,22,05,49,15.70
2014,07,22,05,50,15.80
2014,07,22,05,51,15.80
2014,07,22,05,52,15.80
2014,07,22,05,53,15.80
2014,07,22,05,54,15.80
2014,07,22,05,55,15.80
2014,07,22,05,56,15.80
2014,07,22,05,57,15.80
2014,07,22,05,58,15.90
2014,07,22,05,59,15.90
2014,07,22,06,00,15.90
2014,07,22,06,01,15.90
2014,07,22,06,02,15.90
2014,07,22,06,03,15.90
2014,07,22,06,04,15.90
2014,07,22,06,05,15.90
2014,07,22,06,06,15.90
2014,07,22,06,07,15.90
2014,07,22,06,08,15.90
2014,07,22,06,09,15.90
2014,07,22,06,10,15.90
2014,07,22,06,11,15.90
2014,07,22,06,12,15.90
2014,07,22,06,13,15.90
2014,07,22,06,14,16.00
2014,07,22,06,15,16.00
2014,07,22,06,16,16.00
2014,07,22,06,17,16.00
2014,07,22,06,18,16.00
2014,07,22,06,19,16.00
2014,07,22,06,20,16.00
2014,07,22,06,21,16.00
2014,07,22,06,22,16.10
2014,07,22,06,23,16.10
2014,07,22,06,24,16.10
2014,07,22,06,25,16.10
2014,07,22,06,26,16.10
2014,07,22,06,27,16.10
2014,07,22,06,28,16.10
2014,07,22,06,29,16.10
2014,07,22,06,30,16.20
2014,07,22,06,31,16.20
2014,07,22,06,32,16.20
2014,07,22,06,33,16.20
2014,07,22,06,34,16.20
2014,07,22,06,35,16.20
2014,07,22,06,36,16.20
2014,07,22,06,37,16.20
2014,07,22,06,38,16.20
2014,07,22,06,39,16.20
2014,07,22,06,40,16.20
2014,07,22,06,41,16.30
2014,07,22,06,42,16.30
2014,07,22,06,43,16.30
2014,07,22,06,44,16.30
2014,07,22,06,45,16.30
2014,07,22,06,46,16.30
2014,07,22,06,47,16.30
2014,07,22,06,48,16.30
2014,07,22,06,49,16.30
2014,07,22,06,50,16.30
2014,07,22,06,51,16.30
2014,07,22,06,52,16.30
2014,07,22,06,53,16.40
2014,07,22,06,54,16.40
2014,07,22,06,55,16.40
2014,07,22,06,56,16.40
2014,07,22,06,57,16.40
2014,07,22,06,58,16.40
2014,07,22,06,59,16.40
2014,07,22,07,00,16.40
2014,07,22,07,01,16.40
2014,07,22,07,02,16.40
2014,07,22,07,03,16.40
2014,07,22,07,04,16.40
2014,07,22,07,05,16.40
2014,07,22,07,06,16.40
2014,07,22,07,07,16.40
2014,07,22,07,08,16.40
2014,07,22,07,09,16.40
2014,07,22,07,10,16.40
2014,07,22,07,11,16.40
2014,07,22,07,12,16.40
2014,07,22,07,13,16.40
2014,07,22,07,14,16.40
2014,07,22,07,15,16.40
2014,07,22,07,16,16.40
2014,07,22,07,17,16.40
2014,07,22,07,18,16.40
2014,07,22,07,19,16.40
2014,07,22,07,20,16.40
2014,07,22,07,21,16.40
2014,07,22,07,22,16.40
2014,07,22,07,23,16.40
2014,07,22,07,24,16.40
2014,07,22,07,25,16.40
2014,07,22,07,26,16.40
2014,07,22,07,27,16.40
2014,07,22,07,28,16.40
2014,07,22,07,29,16.40
2014,07,22,07,30,16.40
2014,07,22,07,31,16.40
2014,07,22,07,32,16.50
2014,07,22,07,33,16.50
2014,07,22,07,34,16.50
2014,07,22,07,35,16.50
2014,07,22,07,36,16.50
2014,07,22,07,37,16.50
2014,07,22,07,38,16.50
2014,07,22,07,39,16.50
2014,07,22,07,40,16.50
2014,07,22,07,41,16.50
2014,07,22,07,42,16.40
2014,07,22,07,43,16.50
2014,07,22,07,44,16.40
2014,07,22,07,45,16.40
2014,07,22,07,46,16.40
2014,07,22,07,47,16.40
2014,07,22,07,48,16.40
2014,07,22,07,49,16.40
2014,07,22,07,50,16.40
2014,07,22,07,51,16.40
2014,07,22,07,52,16.40
2014,07,22,07,53,16.40
2014,07,22,07,54,16.40
2014,07,22,07,55,16.40
2014,07,22,07,56,16.40
2014,07,22,07,57,16.40
2014,07,22,07,58,16.40
2014,07,22,07,59,16.40
2014,07,22,08,00,16.50
2014,07,22,08,01,16.50
2014,07,22,08,02,16.50
2014,07,22,08,03,16.50
2014,07,22,08,04,16.50
2014,07,22,08,05,16.60
2014,07,22,08,06,16.60
2014,07,22,08,07,16.60
2014,07,22,08,08,16.60
2014,07,22,08,09,16.60
2014,07,22,08,10,16.60
2014,07,22,08,11,16.70
2014,07,22,08,12,16.70
2014,07,22,08,13,16.70
2014,07,22,08,14,16.70
2014,07,22,08,15,16.70
2014,07,22,08,16,16.70
2014,07,22,08,17,16.70
2014,07,22,08,18,16.80
2014,07,22,08,19,16.80
2014,07,22,08,20,16.80
2014,07,22,08,21,16.80
2014,07,22,08,22,16.80
2014,07,22,08,23,16.80
2014,07,22,08,24,16.80
2014,07,22,08,25,16.80
2014,07,22,08,26,16.80
2014,07,22,08,27,16.80
2014,07,22,08,28,16.90
2014,07,22,08,29,16.90
2014,07,22,08,30,16.90
2014,07,22,08,31,16.90
2014,07,22,08,32,16.90
2014,07,22,08,33,17.00
2014,07,22,08,34,17.00
2014,07,22,08,35,17.00
2014,07,22,08,36,17.00
2014,07,22,08,37,17.00
2014,07,22,08,38,17.00
2014,07,22,08,39,17.10
2014,07,22,08,40,17.10
2014,07,22,08,41,17.10
2014,07,22,08,42,17.10
2014,07,22,08,43,17.10
2014,07,22,08,44,17.10
2014,07,22,08,45,17.10
2014,07,22,08,46,17.20
2014,07,22,08,47,17.20
2014,07,22,08,48,17.20
2014,07,22,08,49,17.20
2014,07,22,08,50,17.20
2014,07,22,08,51,17.20
2014,07,22,08,52,17.20
2014,07,22,08,53,17.30
2014,07,22,08,54,17.30
2014,07,22,08,55,17.30
2014,07,22,08,56,17.40
2014,07,22,08,57,17.40
2014,07,22,08,58,17.40
2014,07,22,08,59,17.50
2014,07,22,09,00,17.50
2014,07,22,09,01,17.50
2014,07,22,09,02,17.60
2014,07,22,09,03,17.60
2014,07,22,09,04,17.60
2014,07,22,09,05,17.70
2014,07,22,09,06,17.70
2014,07,22,09,07,17.70
2014,07,22,09,08,17.70
2014,07,22,09,09,17.70
2014,07,22,09,10,17.70
2014,07,22,09,11,17.70
2014,07,22,09,12,17.80
2014,07,22,09,13,17.70
2014,07,22,09,14,17.70
2014,07,22,09,15,17.70
2014,07,22,09,16,17.70
2014,07,22,09,17,17.70
2014,07,22,09,18,17.70
2014,07,22,09,19,17.70
2014,07,22,09,20,17.70
2014,07,22,09,21,17.70
2014,07,22,09,22,17.70
2014,07,22,09,23,17.70
2014,07,22,09,24,17.70
2014,07,22,09,25,17.70
2014,07,22,09,26,17.70
2014,07,22,09,27,17.70
2014,07,22,09,28,17.70
2014,07,22,09,29,17.80
2014,07,22,09,30,17.80
2014,07,22,09,31,17.80
2014,07,22,09,32,17.80
2014,07,22,09,33,17.90
2014,07,22,09,34,17.90
2014,07,22,09,35,18.00
2014,07,22,09,36,18.00
2014,07,22,09,37,18.00
2014,07,22,09,38,18.10
2014,07,22,09,39,18.10
2014,07,22,09,40,18.10
2014,07,22,09,41,18.20
2014,07,22,09,42,18.20
2014,07,22,09,43,18.30
2014,07,22,09,44,18.30
2014,07,22,09,45,18.20
2014,07,22,09,46,18.20
2014,07,22,09,47,18.20
2014,07,22,09,48,18.20
2014,07,22,09,49,18.20
2014,07,22,09,50,18.30
2014,07,22,09,51,18.30
2014,07,22,09,52,18.40
2014,07,22,09,53,18.40
2014,07,22,09,54,18.40
2014,07,22,09,55,18.40
2014,07,22,09,56,18.50
2014,07,22,09,57,18.50
2014,07,22,09,58,18.60
2014,07,22,09,59,18.60
2014,07,22,10,00,18.60
2014,07,22,10,01,18.60
2014,07,22,10,02,18.60
2014,07,22,10,03,18.60
2014,07,22,10,04,18.60
2014,07,22,10,05,18.60
2014,07,22,10,06,18.60
2014,07,22,10,07,18.60
2014,07,22,10,08,18.60
2014,07,22,10,09,18.60
2014,07,22,10,10,18.60
2014,07,22,10,11,18.60
2014,07,22,10,12,18.50
2014,07,22,10,13,18.50
2014,07,22,10,14,18.40
2014,07,22,10,15,18.50
2014,07,22,10,16,18.50
2014,07,22,10,17,18.50
2014,07,22,10,18,18.50
2014,07,22,10,19,18.60
2014,07,22,10,20,18.60
2014,07,22,10,21,18.60
2014,07,22,10,22,18.60
2014,07,22,10,23,18.60
2014,07,22,10,24,18.60
2014,07,22,10,25,18.60
2014,07,22,10,26,18.60
2014,07,22,10,27,18.60
2014,07,22,10,28,18.60
2014,07,22,10,29,18.60
2014,07,22,10,30,18.60
2014,07,22,10,31,18.60
2014,07,22,10,32,18.70
2014,07,22,10,33,18.70
2014,07,22,10,34,18.70
2014,07,22,10,35,18.80
2014,07,22,10,36,18.80
2014,07,22,10,37,18.80
2014,07,22,10,38,18.80
2014,07,22,10,39,18.80
2014,07,22,10,40,18.80
2014,07,22,10,41,18.90
2014,07,22,10,42,18.90
2014,07,22,10,43,18.80
2014,07,22,10,44,18.80
2014,07,22,10,45,18.80
2014,07,22,10,46,18.80
2014,07,22,10,47,18.80
2014,07,22,10,48,18.80
2014,07,22,10,49,18.70
2014,07,22,10,50,18.70
2014,07,22,10,51,18.70
2014,07,22,10,52,18.70
2014,07,22,10,53,18.70
2014,07,22,10,54,18.70
2014,07,22,10,55,18.70
2014,07,22,10,56,18.70
2014,07,22,10,57,18.70
2014,07,22,10,58,18.60
2014,07,22,10,59,18.60
2014,07,22,11,00,18.60
2014,07,22,11,01,18.60
2014,07,22,11,02,18.60
2014,07,22,11,03,18.60
2014,07,22,11,04,18.70
2014,07,22,11,05,18.70
2014,07,22,11,06,18.70
2014,07,22,11,07,18.70
2014,07,22,11,08,18.70
2014,07,22,11,09,18.70
2014,07,22,11,10,18.70
2014,07,22,11,11,18.70
2014,07,22,11,12,18.70
2014,07,22,11,13,18.80
2014,07,22,11,14,18.90
2014,07,22,11,15,19.00
2014,07,22,11,16,19.10
2014,07,22,11,17,19.10
2014,07,22,11,18,19.20
2014,07,22,11,19,19.20
2014,07,22,11,20,19.20
2014,07,22,11,21,19.20
2014,07,22,11,22,19.30
2014,07,22,11,23,19.30
2014,07,22,11,24,19.30
2014,07,22,11,25,19.20
2014,07,22,11,26,19.20
2014,07,22,11,27,19.20
2014,07,22,11,28,19.20
2014,07,22,11,29,19.10
2014,07,22,11,30,19.10
2014,07,22,11,31,19.20
2014,07,22,11,32,19.20
2014,07,22,11,33,19.30
2014,07,22,11,34,19.30
2014,07,22,11,35,19.30
2014,07,22,11,36,19.40
2014,07,22,11,37,19.40
2014,07,22,11,38,19.40
2014,07,22,11,39,19.40
2014,07,22,11,40,19.50
2014,07,22,11,41,19.50
2014,07,22,11,42,19.60
2014,07,22,11,43,19.70
2014,07,22,11,44,19.80
2014,07,22,11,45,19.90
2014,07,22,11,46,19.90
2014,07,22,11,47,19.90
2014,07,22,11,48,19.90
2014,07,22,11,49,20.00
2014,07,22,11,50,20.00
2014,07,22,11,51,20.10
2014,07,22,11,52,20.20
2014,07,22,11,53,20.20
2014,07,22,11,54,20.30
2014,07,22,11,55,20.30
2014,07,22,11,56,20.40
2014,07,22,11,57,20.40
2014,07,22,11,58,20.40
2014,07,22,11,59,20.40
2014,07,22,12,00,20.40
2014,07,22,12,01,20.40
2014,07,22,12,02,20.30
2014,07,22,12,03,20.30
2014,07,22,12,04,20.30
2014,07,22,12,05,20.30
2014,07,22,12,06,20.40
2014,07,22,12,07,20.40
2014,07,22,12,08,20.40
2014,07,22,12,09,20.40
2014,07,22,12,10,20.50
2014,07,22,12,11,20.40
2014,07,22,12,12,20.50
2014,07,22,12,13,20.50
2014,07,22,12,14,20.60
2014,07,22,12,15,20.60
2014,07,22,12,16,20.50
2014,07,22,12,17,20.40
2014,07,22,12,18,20.30
2014,07,22,12,19,20.30
2014,07,22,12,20,20.40
2014,07,22,12,21,20.40
2014,07,22,12,22,20.40
2014,07,22,12,23,20.40
2014,07,22,12,24,20.50
2014,07,22,12,25,20.50
2014,07,22,12,26,20.60
2014,07,22,12,27,20.70
2014,07,22,12,28,20.70
2014,07,22,12,29,20.70
2014,07,22,12,30,20.70
2014,07,22,12,31,20.70
2014,07,22,12,32,20.80
2014,07,22,12,33,20.80
2014,07,22,12,34,20.90
2014,07,22,12,35,21.00
2014,07,22,12,36,21.00
2014,07,22,12,37,21.10
2014,07,22,12,38,21.20
2014,07,22,12,39,21.20
2014,07,22,12,40,21.30
2014,07,22,12,41,21.40
2014,07,22,12,42,21.40
2014,07,22,12,43,21.40
2014,07,22,12,44,21.40
2014,07,22,12,45,21.40
2014,07,22,12,46,21.40
2014,07,22,12,47,21.40
2014,07,22,12,48,21.40
2014,07,22,12,49,21.40
2014,07,22,12,50,21.40
2014,07,22,12,51,21.50
2014,07,22,12,52,21.50
2014,07,22,12,53,21.50
2014,07,22,12,54,21.50
2014,07,22,12,55,21.50
2014,07,22,12,56,21.40
2014,07,22,12,57,21.30
2014,07,22,12,58,21.30
2014,07,22,12,59,21.30
2014,07,22,13,00,21.30
2014,07,22,13,01,21.20
2014,07,22,13,02,21.20
2014,07,22,13,03,21.10
2014,07,22,13,04,21.10
2014,07,22,13,05,21.10
2014,07,22,13,06,21.10
2014,07,22,13,07,21.10
2014,07,22,13,08,21.10
2014,07,22,13,09,21.10
2014,07,22,13,10,21.10
2014,07,22,13,11,21.10
2014,07,22,13,12,21.10
2014,07,22,13,13,21.10
2014,07,22,13,14,21.10
2014,07,22,13,15,21.10
2014,07,22,13,16,21.20
2014,07,22,13,17,21.10
2014,07,22,13,18,21.10
2014,07,22,13,19,21.00
2014,07,22,13,20,20.90
2014,07,22,13,21,20.80
2014,07,22,13,22,20.70
2014,07,22,13,23,20.70
2014,07,22,13,24,20.60
2014,07,22,13,25,20.50
2014,07,22,13,26,20.40
2014,07,22,13,27,20.40
2014,07,22,13,28,20.40
2014,07,22,13,29,20.40
2014,07,22,13,30,20.40
2014,07,22,13,31,20.50
2014,07,22,13,32,20.60
2014,07,22,13,33,20.70
2014,07,22,13,34,20.80
2014,07,22,13,35,20.90
2014,07,22,13,36,21.00
2014,07,22,13,37,21.00
2014,07,22,13,38,21.10
2014,07,22,13,39,21.20
2014,07,22,13,40,21.20
2014,07,22,13,41,21.10
2014,07,22,13,42,21.00
2014,07,22,13,43,20.90
2014,07,22,13,44,20.80
2014,07,22,13,45,20.80
2014,07,22,13,46,20.80
2014,07,22,13,47,20.80
2014,07,22,13,48,20.90
2014,07,22,13,49,21.10
2014,07,22,13,52,21.40
2014,07,22,13,53,21.50
2014,07,22,13,54,21.50
2014,07,22,13,55,21.60
2014,07,22,13,56,21.60
2014,07,22,13,57,21.70
2014,07,22,13,58,21.80
2014,07,22,13,59,21.90
2014,07,22,14,00,22.00
2014,07,22,14,01,22.00
2014,07,22,14,02,22.10
2014,07,22,14,03,22.10
2014,07,22,14,04,21.90
2014,07,22,14,05,21.90
2014,07,22,14,06,21.80
2014,07,22,14,07,21.80
2014,07,22,14,08,21.70
2014,07,22,14,09,21.60
2014,07,22,14,10,21.50
2014,07,22,14,11,21.30
2014,07,22,14,12,21.30
2014,07,22,14,13,21.30
2014,07,22,14,14,21.20
2014,07,22,14,15,21.10
2014,07,22,14,16,21.10
2014,07,22,14,17,21.00
2014,07,22,14,18,20.90
2014,07,22,14,19,20.80
2014,07,22,14,20,20.70
2014,07,22,14,21,20.70
2014,07,22,14,22,20.70
2014,07,22,14,23,20.70
2014,07,22,14,24,20.80
2014,07,22,14,25,20.80
2014,07,22,14,26,20.90
2014,07,22,14,27,20.90
2014,07,22,14,28,21.00
2014,07,22,14,29,21.00
2014,07,22,14,30,21.10
2014,07,22,14,31,21.10
2014,07,22,14,32,21.10
2014,07,22,14,33,21.10
2014,07,22,14,34,21.10
2014,07,22,14,35,21.20
2014,07,22,14,36,21.20
2014,07,22,14,37,21.20
2014,07,22,14,38,21.30
2014,07,22,14,39,21.30
2014,07,22,14,40,21.30
2014,07,22,14,41,21.30
2014,07,22,14,42,21.20
2014,07,22,14,43,21.20
2014,07,22,14,44,21.20
2014,07,22,14,45,21.20
2014,07,22,14,46,21.20
2014,07,22,14,47,21.20
2014,07,22,14,48,21.30
2014,07,22,14,49,21.40
2014,07,22,14,50,21.50
2014,07,22,14,51,21.50
2014,07,22,14,52,21.60
2014,07,22,14,53,21.60
2014,07,22,14,54,21.50
2014,07,22,14,55,21.50
2014,07,22,14,56,21.50
2014,07,22,14,57,21.40
2014,07,22,14,58,21.40
2014,07,22,14,59,21.30
2014,07,22,15,00,21.40
2014,07,22,15,01,21.40
2014,07,22,15,02,21.50
2014,07,22,15,03,21.50
2014,07,22,15,04,21.60
2014,07,22,15,05,21.60
2014,07,22,15,06,21.50
2014,07,22,15,07,21.50
2014,07,22,15,08,21.60
2014,07,22,15,09,21.60
2014,07,22,15,10,21.60
2014,07,22,15,11,21.50
2014,07,22,15,12,21.50
2014,07,22,15,13,21.50
2014,07,22,15,14,21.60
2014,07,22,15,15,21.70
2014,07,22,15,16,21.80
2014,07,22,15,17,21.90
2014,07,22,15,18,21.90
2014,07,22,15,19,22.10
2014,07,22,15,20,22.10
2014,07,22,15,21,22.10
2014,07,22,15,22,22.00
2014,07,22,15,23,21.90
2014,07,22,15,24,21.80
2014,07,22,15,25,21.70
2014,07,22,15,26,21.70
2014,07,22,15,27,21.70
2014,07,22,15,28,21.70
2014,07,22,15,29,21.80
2014,07,22,15,30,21.80
2014,07,22,15,31,21.80
2014,07,22,15,32,21.90
2014,07,22,15,33,21.90
2014,07,22,15,34,21.90
2014,07,22,15,35,22.00
2014,07,22,15,36,22.00
2014,07,22,15,37,22.00
2014,07,22,15,38,22.00
2014,07,22,15,39,22.00
2014,07,22,15,40,22.00
2014,07,22,15,41,22.00
2014,07,22,15,42,22.10
2014,07,22,15,43,22.10
2014,07,22,15,44,22.10
2014,07,22,15,45,22.10
2014,07,22,15,46,22.10
2014,07,22,15,47,22.10
2014,07,22,15,48,21.90
2014,07,22,15,49,21.80
2014,07,22,15,50,21.80
2014,07,22,15,51,21.80
2014,07,22,15,52,21.80
2014,07,22,15,53,21.90
2014,07,22,15,54,21.90
2014,07,22,15,55,21.90
2014,07,22,15,56,21.90
2014,07,22,15,57,21.80
2014,07,22,15,58,21.70
2014,07,22,15,59,21.70
2014,07,22,16,00,21.70
2014,07,22,16,01,21.80
2014,07,22,16,02,21.80
2014,07,22,16,03,21.90
2014,07,22,16,04,21.90
2014,07,22,16,05,22.00
2014,07,22,16,06,22.10
2014,07,22,16,07,22.10
2014,07,22,16,08,22.10
2014,07,22,16,09,22.10
2014,07,22,16,10,22.20
2014,07,22,16,11,22.30
2014,07,22,16,12,22.40
2014,07,22,16,13,22.50
2014,07,22,16,14,22.60
2014,07,22,16,15,22.60
2014,07,22,16,16,22.70
2014,07,22,16,17,22.70
2014,07,22,16,18,22.70
2014,07,22,16,19,22.70
2014,07,22,16,20,22.70
2014,07,22,16,21,22.70
2014,07,22,16,22,22.80
2014,07,22,16,23,22.90
2014,07,22,16,24,22.90
2014,07,22,16,25,23.00
2014,07,22,16,26,22.90
2014,07,22,16,27,22.80
2014,07,22,16,28,22.70
2014,07,22,16,29,22.70
2014,07,22,16,30,22.70
2014,07,22,16,31,22.80
2014,07,22,16,32,22.80
2014,07,22,16,33,22.80
2014,07,22,16,34,22.80
2014,07,22,16,35,22.90
2014,07,22,16,36,22.90
2014,07,22,16,37,23.00
2014,07,22,16,38,23.10
2014,07,22,16,39,23.10
2014,07,22,16,40,23.10
2014,07,22,16,41,23.10
2014,07,22,16,42,23.10
2014,07,22,16,43,23.00
2014,07,22,16,44,23.00
2014,07,22,16,45,23.00
2014,07,22,16,46,22.90
2014,07,22,16,47,22.80
2014,07,22,16,48,22.80
2014,07,22,16,49,22.80
2014,07,22,16,50,22.70
2014,07,22,16,51,22.60
2014,07,22,16,52,22.50
2014,07,22,16,53,22.50
2014,07,22,16,54,22.50
2014,07,22,16,55,22.60
2014,07,22,16,56,22.60
2014,07,22,16,57,22.60
2014,07,22,16,58,22.70
2014,07,22,16,59,22.80
2014,07,22,17,00,22.90
2014,07,22,17,01,23.00
2014,07,22,17,02,23.00
2014,07,22,17,03,22.90
2014,07,22,17,04,22.80
2014,07,22,17,05,22.70
2014,07,22,17,06,22.60
2014,07,22,17,07,22.60
2014,07,22,17,08,22.60
2014,07,22,17,09,22.60
2014,07,22,17,10,22.50
2014,07,22,17,11,22.50
2014,07,22,17,12,22.50
2014,07,22,17,13,22.60
2014,07,22,17,14,22.50
2014,07,22,17,15,22.50
2014,07,22,17,16,22.50
2014,07,22,17,17,22.60
2014,07,22,17,18,22.60
2014,07,22,17,19,22.60
2014,07,22,17,20,22.70
2014,07,22,17,21,22.70